Simultaneous Nadir Overpasses (SNOs) Predictions

Prediction of SNOs between AQUA and NPP Satellite Orbit:

Table of predicted SNOs for the next 14.0 days since TLE Epoch: 2/11/2017
Index Date (AQUA) Time (AQUA) Lat,Lon (AQUA) SZA (AQUA ) Date (NPP) Time (NPP) Lat,Lon (NPP) SZA (NPP ) Distance(km) Time Diff (sec)
1 02/12/2017 05:32:20 -75.46, 154.48 68.16 02/12/2017 05:31:12 -75.47, 154.53 68.12 1.44 68
2 02/12/2017 06:21:23 76.58, -34.42 110.56 02/12/2017 06:21:32 76.58, -34.36 110.54 1.63 9
3 02/14/2017 21:48:41 -75.96, -88.20 69.61 02/14/2017 21:47:55 -75.96, -88.10 69.59 2.71 46
4 02/14/2017 22:37:54 76.57, 81.44 109.67 02/14/2017 22:38:26 76.56, 81.34 109.67 2.68 32
5 02/17/2017 14:05:11 -76.00, 27.81 70.58 02/17/2017 14:04:48 -75.99, 27.77 70.55 1.24 23
6 02/17/2017 14:54:16 76.99,-161.20 108.26 02/17/2017 14:55:10 76.99,-161.22 108.22 0.48 54
7 02/20/2017 05:35:20 65.94, -41.15 118.90 02/20/2017 05:34:07 66.09, -42.15 119.16 48.19 73
8 02/20/2017 06:21:31 -76.47, 145.21 72.07 02/20/2017 06:21:30 -76.47, 145.25 72.08 1.22 1
9 02/20/2017 07:08:50 81.23, -14.51 100.80 02/20/2017 07:10:03 80.92, -13.59 100.60 38.72 73
10 02/22/2017 21:48:53 75.54, 90.58 108.04 02/22/2017 21:47:58 75.54, 90.54 108.10 1.01 55




NCC Satellite Simultaneous Nadir Overpasses (SNOs) Prediction Service
